Zurück zum Katalog

YAMAL 201

AktivKommunikationGEO
NORAD 28094·PAYLOAD·🇷🇺 Russia

Gestartet Nov 24, 2003 von Baikonur Cosmodrome

Loading…

TLE

AktuellSource: Space-Track

Epoche: Sep 14, 2026, 21:04 UTC

1 28094U 03053B   26257.87797388 -.00000239  00000-0  00000-0 0  9998
2 28094   9.8132  54.5786 0006965 137.1587 207.6778  1.00293609 85775

Verfolge YAMAL 201 in Echtzeit mit AllMySat

Download on the App Store